Location: Cointrin
(46.2167°N, 6.1167°E)
Time: 16:43:07
(UTC+00:00)

Cosmos 1812 Rocket - Pass Details

Date: 08 February 2023
Orbit: 603 x 631 km, 82.5° (Epoch: 21 March)

Event Time Altitude Azimuth Distance (km) Brightness Sun altitude
Rises 18:47:05 0° 350° (N) 2,933 7.2 -20.6°
Reaches altitude 10° 18:49:21 10° 350° (N) 2,018 6.3 -21.0°
Maximum altitude 18:53:50 86° 263° (W) 634 3.5 -21.7°
Drops below altitude 10° 18:58:14 10° 174° (S) 1,987 6.1 -22.5°
Sets 19:00:27 0° 174° (S) 2,883 6.9 -22.9°
